Location: Bradley
(41.1420°N, 87.8610°W)
Time: 03:30:48
(UTC-06:00)

OTV 5 (USA 277) - Visible Passes

Search period start: 17 February 2019 00:00
Search period end: 27 February 2019 00:00
Orbit: 342 x 346 km, 54.5° (Epoch: 09 February)

Date Brightness Start Highest point End Pass type
(mag) Time Alt. Az. Time Alt. Az. Time Alt. Az.
17 Feb ? 04:42:26 18° SE 04:42:26 18° SE 04:43:20 10° SE visible
18 Feb ? 05:06:01 12° S 05:06:01 12° S 05:06:19 10° S visible
22 Feb ? 18:19:14 10° SE 18:20:12 11° SE 18:20:39 11° ESE visible
22 Feb ? 19:51:56 10° WSW 19:52:08 11° WSW 19:52:08 11° WSW visible
23 Feb ? 18:40:52 10° SSW 18:43:34 37° SE 18:44:16 31° E visible
24 Feb ? 19:04:20 10° WSW 19:07:10 55° NW 19:07:46 43° N visible
25 Feb ? 19:28:44 10° W 19:30:59 20° NNW 19:31:07 20° NNW visible
26 Feb ? 18:16:44 10° WSW 18:19:35 58° NW 18:22:27 10° NE visible
26 Feb ? 19:54:11 10° NW 19:54:21 10° NW 19:54:21 10° NW visible
